Home   Weather   Fairfield   Past weeks
Flag for USA

Past Weather in Fairfield, Florida, USA — Yesterday and Last 2 Weeks

Now
65 °F

Sunny.


Feels Like: 65 °F
Forecast: 68 / 39 °F
Wind: 6 mph from North

Location: Ocala Municipal

Current Time: Dec 5, 2019 at 12:51:05 pm

Latest Report: Dec 5, 2019 at 11:51 am


Visibility: 10 mi

Pressure: 30.16 "Hg

Humidity: 33%

Dew Point: 35 °F

Location of FairfieldLocation

Past Weather in Fairfield — Graph

°F

Fairfield Temperature Yesterday

Maximum temperature yesterday: 65 °F (at 2:51 pm)
Minimum temperature yesterday: 36 °F (at 1:39 am)
Average temperature yesterday: 48 °F

High & Low Weather Summary for the Past Weeks

 TemperatureHumidityPressure
High82 °F (Dec 1, 1:51 pm)100% (Nov 21, 12:51 am)30.27 "Hg (Nov 21, 12:51 am)
Low31 °F (Dec 3, 5:51 am)26% (Nov 28, 2:51 pm)29.83 "Hg (Dec 2, 12:14 am)
Average57 °F81%30.05 "Hg
* Reported Nov 20 11:51 am — Dec 5 11:51 am, Fairfield. Weather by CustomWeather, © 2019

Note: Actual official high and low records may vary slightly from our data, if they occured in-between our weather recording intervals... More about our weather records

Fairfield Weather History for the Previous 24 Hours

Scroll right to see more
 ConditionsComfort  
Time TempWeatherWind HumidityBarometerVisibility
11:51 am
Thu, Dec 5
65 °FSunny.6 mph33%30.16 "Hg10 mi
10:51 am62 °FSunny.8 mph43%30.18 "Hg10 mi
9:51 am58 °FSunny.6 mph51%30.17 "Hg10 mi
8:51 am48 °FSunny.No wind89%30.15 "Hg10 mi
7:51 am38 °FSunny.No wind100%30.13 "Hg10 mi
6:51 am37 °FClear.No wind96%30.11 "Hg10 mi
5:51 am37 °FClear.No wind96%30.09 "Hg10 mi
4:51 am38 °FClear.No wind97%30.06 "Hg10 mi
3:51 am39 °FClear.3 mph96%30.06 "Hg10 mi
2:51 am39 °FClear.3 mph100%30.05 "Hg10 mi
1:51 am38 °FClear.No wind100%30.05 "Hg10 mi
12:51 am39 °FClear.No wind96%30.05 "Hg10 mi
11:51 pm
Wed, Dec 4
40 °FClear.No wind97%30.04 "Hg10 mi
10:51 pm42 °FClear.No wind92%30.04 "Hg10 mi
9:51 pm43 °FClear.No wind93%30.03 "Hg10 mi
8:51 pm46 °FClear.No wind86%30.01 "Hg10 mi
7:51 pm49 °FClear.3 mph77%30.01 "Hg10 mi
6:51 pm51 °FClear.3 mph69%30.00 "Hg10 mi
5:51 pm55 °FClear.7 mph55%29.98 "Hg10 mi
4:51 pm61 °FSunny.10 mph44%29.97 "Hg10 mi
3:51 pm65 °FSunny.10 mph39%29.96 "Hg10 mi
2:51 pm65 °FSunny.7 mph32%29.96 "Hg10 mi
1:51 pm64 °FSunny.7 mph32%29.97 "Hg10 mi
12:51 pm61 °FSunny.9 mph35%29.98 "Hg10 mi
Weather by CustomWeather, © 2019

See weather overview

Advertising